WB5MTX Weather Reports


Display with metric or nautical units.
time (UTC)temp
F
wind
direction
speed
MPH
gust
MPH
rain 1hr
in
rain 24hr
in
rain mn
in
humidity
%
barometer
mb
20260902111559 77 0 0.0 0.0 0.00 0.00 0.00 78 1015.5
20260902110105 77 0 0.0 0.0 0.00 0.00 0.00 77 1015.3
20260902104600 77 0 0.0 0.0 0.00 0.00 0.00 77 1015.3
20260902103108 78 0 0.0 0.0 0.00 0.00 0.00 76 1015.2
20260902101600 78 0 0.0 0.0 0.00 0.00 0.00 76 1015.1
20260902100122 78 0 0.0 0.0 0.00 0.00 0.00 77 1015.2
20260902094603 78 0 0.0 0.0 0.00 0.00 0.00 74 1015.1
20260902093102 79 0 0.0 0.0 0.00 0.00 0.00 73 1015.1
20260902091608 79 0 0.0 0.0 0.00 0.00 0.00 73 1015.2
20260902090111 79 0 0.0 0.0 0.00 0.00 0.00 75 1015.3
20260902084601 80 0 0.0 0.0 0.00 0.00 0.00 73 1015.2
20260902083058 80 0 0.0 0.0 0.00 0.00 0.00 71 1015.2
20260902081558 80 0 0.0 0.0 0.00 0.00 0.00 69 1015.3
20260902080113 81 0 0.0 0.0 0.00 0.00 0.00 69 1015.3
20260902074618 81 0 0.0 0.0 0.00 0.00 0.00 68 1015.4
20260902073110 82 0 0.0 0.0 0.00 0.00 0.00 68 1015.5
20260902071630 82 171 0.0 2.0 0.00 0.00 0.00 67 1015.5
20260902064611 83 0 0.0 0.0 0.00 0.00 0.00 65 1015.6
20260902063102 83 0 0.0 1.0 0.00 0.00 0.00 65 1015.5
20260902061611 84 0 0.0 3.0 0.00 0.00 0.00 64 1015.5
20260902060108 84 0 0.0 4.0 0.00 0.00 0.00 63 1015.3
20260902054601 84 0 0.0 5.0 0.00 0.00 0.00 62 1015.1
20260902053102 85 0 0.0 6.0 0.00 0.00 0.00 61 1014.9
20260902051559 86 139 0.0 8.0 0.00 0.00 0.00 59 1014.9
20260902050114 86 98 1.0 8.0 0.00 0.00 0.00 57 1015.0
20260902044600 87 0 1.0 7.0 0.00 0.00 0.00 55 1014.9
20260902043101 87 0 0.0 0.0 0.00 0.00 0.00 56 1014.9
20260902041604 87 0 0.0 0.0 0.00 0.00 0.00 54 1014.5
20260902040106 88 0 0.0 0.0 0.00 0.00 0.00 53 1014.5
20260902034558 88 0 0.0 2.0 0.00 0.00 0.00 52 1014.4
20260902033059 89 0 0.0 3.0 0.00 0.00 0.00 51 1014.4
20260902031600 89 0 0.0 2.0 0.00 0.00 0.00 50 1014.3
20260902024602 90 0 0.0 3.0 0.00 0.00 0.00 48 1013.8
20260902023109 91 0 0.0 6.0 0.00 0.00 0.00 47 1013.6
20260902021605 91 0 0.0 8.0 0.00 0.00 0.00 47 1013.4
20260902020059 91 0 0.0 4.0 0.00 0.00 0.00 47 1013.3
20260902014600 91 0 0.0 2.0 0.00 0.00 0.00 46 1013.1
20260902013055 92 0 0.0 3.0 0.00 0.00 0.00 45 1013.1
20260902011605 93 0 0.0 8.0 0.00 0.00 0.00 44 1013.0
20260902010121 93 0 0.0 8.0 0.00 0.00 0.00 43 1012.9
20260902004605 94 109 0.0 8.0 0.00 0.00 0.00 43 1012.9
20260902003106 95 0 0.0 8.0 0.00 0.00 0.00 42 1012.9
20260902001600 95 0 0.0 4.0 0.00 0.00 0.00 41 1013.0
20260902000100 96 0 0.0 3.0 0.00 0.00 0.00 40 1013.1
20260901234600 96 0 1.0 7.0 0.00 0.00 0.00 39 1013.1
20260901233105 97 98 0.0 7.0 0.00 0.00 0.00 39 1013.2
20260901231600 98 0 0.0 3.0 0.00 0.00 0.00 39 1013.1
20260901230103 98 0 0.0 8.0 0.00 0.00 0.00 37 1013.2
20260901224559 99 0 0.0 8.0 0.00 0.00 0.00 38 1013.1
20260901223103 99 0 0.0 9.0 0.00 0.00 0.00 37 1013.1
20260901221632 100 0 0.0 6.0 0.00 0.00 0.00 35 1013.2
20260901220112 100 103 2.0 9.0 0.00 0.00 0.00 35 1013.3
20260901214602 100 0 1.0 9.0 0.00 0.00 0.00 36 1013.4
20260901213109 100 0 0.0 8.0 0.00 0.00 0.00 36 1013.3
20260901211610 100 0 0.0 6.0 0.00 0.00 0.00 36 1013.6
20260901204601 98 112 2.0 10.0 0.00 0.00 0.00 38 1014.0
20260901203106 100 0 2.0 8.0 0.00 0.00 0.00 36 1014.1
20260901201601 100 123 2.0 10.0 0.00 0.00 0.00 37 1014.3
20260901200109 99 0 0.0 7.0 0.00 0.00 0.00 38 1014.4
20260901194605 98 0 2.0 12.0 0.00 0.00 0.00 38 1014.5
20260901193111 98 105 2.0 13.0 0.00 0.00 0.00 37 1014.7
20260901191612 99 115 0.0 10.0 0.00 0.00 0.00 38 1015.0
20260901190116 98 159 0.0 7.0 0.00 0.00 0.00 40 1015.3
20260901184612 98 86 2.0 8.0 0.00 0.00 0.00 39 1015.5
20260901183107 98 113 0.0 9.0 0.00 0.00 0.00 39 1015.7
20260901181613 97 154 0.0 7.0 0.00 0.00 0.00 42 1016.0
20260901180105 97 107 2.0 9.0 0.00 0.00 0.00 41 1016.1
20260901174607 96 0 1.0 10.0 0.00 0.00 0.00 44 1016.3
20260901173103 96 0 0.0 7.0 0.00 0.00 0.00 44 1016.5
20260901171609 95 161 0.0 8.0 0.00 0.00 0.00 47 1016.7
20260901170200 94 0 0.0 7.0 0.00 0.00 0.00 46 1016.9
20260901164604 94 0 0.0 4.0 0.00 0.00 0.00 46 1017.2
20260901163110 93 0 1.0 6.0 0.00 0.00 0.00 49 1017.1
20260901161614 93 0 0.0 7.0 0.00 0.00 0.00 47 1017.3
20260901160056 92 0 0.0 7.0 0.00 0.00 0.00 49 1017.1
20260901154613 92 0 0.0 4.0 0.00 0.00 0.00 51 1017.3
20260901153125 91 0 1.0 7.0 0.00 0.00 0.00 54 1017.2
20260901151602 89 0 0.0 6.0 0.00 0.00 0.00 55 1017.2
20260901150104 88 0 0.0 5.0 0.00 0.00 0.00 58 1017.3
20260901144600 87 0 0.0 4.0 0.00 0.00 0.00 61 1017.3
20260901143059 85 0 0.0 4.0 0.00 0.00 0.00 62 1017.3
20260901141603 84 0 0.0 2.0 0.00 0.00 0.00 64 1017.4
20260901134601 82 0 0.0 3.0 0.00 0.00 0.00 69 1017.4
20260901133057 80 0 0.0 4.0 0.00 0.00 0.00 71 1017.3
20260901131625 78 0 0.0 2.0 0.00 0.00 0.00 74 1017.2
20260901130104 77 0 0.0 0.0 0.00 0.00 0.00 75 1017.0
20260901124602 76 0 0.0 0.0 0.00 0.00 0.00 74 1016.9
20260901123058 76 0 0.0 0.0 0.00 0.00 0.00 74 1016.7
20260901121600 76 0 0.0 0.0 0.00 0.00 0.00 73 1016.5
20260901114600 76 0 0.0 0.0 0.00 0.00 0.00 72 1016.3
20260901113106 77 0 0.0 0.0 0.00 0.00 0.00 72 1016.2